Hourly Weather Roundup
Issued by NWS Central Illinois

Home | Current Version | Previous Version | Text Only | Print | Product List | Glossary On
Versions: 1 2 3 4 5 6 7 8 9 10 11 12 13 14 15 16 17 18 19 20 21 22 23 24 25 26 27 28 29 30 31 32 33 34 35 36 37 38 39 40 41 42 43 44 45 46 47 48 49 50
000
NZUS43 KILX 311410
HWRILX

AREA WEATHER ROUNDUP
NATIONAL WEATHER SERVICE, LINCOLN IL
900 AM CDT TUE MAY 31 2016


CITY           SKY/WX    TMP DP  RH WIND       PRES   REMARKS
BLOOMINGTON    CLOUDY    74  65  73 S6        30.00S
CHAMPAIGN      CLOUDY    75  61  61 SE6       30.00S
DANVILLE       CLOUDY    74  60  61 CALM      29.98S
DECATUR        CLOUDY    76  64  66 E6        29.99S
EFFINGHAM      CLOUDY    76  67  73 NE6       30.00S
FLORA          MOSUNNY   78  65  64 SE6       29.99S HX  80
GALESBURG      CLOUDY    71  62  71 SW7       29.99S
JACKSONVILLE   CLOUDY    69  63  81 W5        29.98F
LACON          TSTM      69  53  55 SE6       29.96F
LAWRENCEVILLE  MOSUNNY   78  62  57 SE5       29.99F HX  80
LITCHFIELD     PTSUNNY   69  61  75 SW16G26   30.01R THUNDER
$$


CITY           SKY/WX    TMP DP  RH WIND       PRES   REMARKS
LINCOLN        CLOUDY    76  65  70 E5        29.98F
MACOMB         CLOUDY    69  62  78 SW5       30.01S
MATTOON          N/A     74  61  63 E3        29.99S
MT CARMEL AP   MOSUNNY   78  60  54 SE6       29.99F
OLNEY-NOBLE AP MOSUNNY   75  64  69 SE3       29.99S HAZE
PARIS          CLOUDY    75  64  68 CALM      30.01S
PEORIA         CLOUDY    74  65  73 SW7       29.98S
PONTIAC        CLOUDY    76  64  67 S3        29.99F
RANTOUL        CLOUDY    76  61  59 S5        29.99S
ROBINSON       MOSUNNY   74  65  74 CALM      30.01R
SPRINGFIELD    CLOUDY    76  64  66 W3        29.98F
TAYLORVILLE    CLOUDY    77  62  58 E8        29.98S
$$

...REGIONAL REPORTS...


CITY           SKY/WX    TMP DP  RH WIND       PRES   REMARKS
CHICAGO O`HARE PTSUNNY   76  55  48 E10       30.01R
KANKAKEE       CLOUDY    75  57  53 SE7       30.01S
MOLINE         CLOUDY    74  65  73 SW7       29.96S
MOUNT STERLING CLOUDY    69  64  83 CALM      29.99S
MOUNT VERNON   CLOUDY    77  66  69 E3        29.98S
PITTSFIELD     CLOUDY    70  64  82 CALM      30.00F
QUINCY         CLOUDY    70  63  78 CALM      29.98F
ROCKFORD       CLOUDY    74  60  61 E7        30.01S
$$


CITY           SKY/WX    TMP DP  RH WIND       PRES   REMARKS
BURLINGTON     CLOUDY    69  63  81 SW5       29.99S
CEDAR RAPIDS   SUNNY     72  65  78 SW7       29.96F
DES MOINES     CLOUDY    71  61  70 S7        29.92F
KIRKSVILLE     CLOUDY    67  63  87 CALM      29.98F
OTTUMWA        PTSUNNY   68  62  81 S10       29.96F
ST LOUIS       LGT RAIN  72  64  76 CALM      30.00R
$$


CITY           SKY/WX    TMP DP  RH WIND       PRES   REMARKS
TERRE HAUTE    PTSUNNY   75  64  68 SE5       30.00S
EVANSVILLE     PTSUNNY   76  61  59 E3        29.99S
INDIANAPOLIS   PTSUNNY   77  64  64 S3        30.01S
LAFAYETTE      CLOUDY    74  61  63 SE3       30.00S
MADISON        MOSUNNY   74  54  49 SE14G22   29.98S
MILWAUKEE      MOSUNNY   62  55  77 NE10      30.04R
$$






USA.gov is the U.S. government's official web portal to all federal, state and local government web resources and services.